ANDOYA current weather conditions

sailwx.info

Wind from 210 at 7 knots

Air temperature -2.0° C
Visibility: greater than 5.4 NM
Dewpoint -4.0° C

Last reported at 2016-Feb-05 20:20 UTC.
Time now 2016-Feb-05 22:20 UTC

Location: N 69°18' E 016°09'.
View on Google Maps.

See reports from other nearby stations

  
Tides and Currents Weather Stations Pressure Air Temp Water Temp Dewpoint Dewpoint Depression Visibility Wind Speed Wind Dir Waves Ship Positions
date/time (UTC)wind fromknots sea level pressurealtimeterstation pressurevisibilityair tempwater tempwave heightnotes
2016-Feb-05 21:20 210 7 -5.0
2016-Feb-05 20:50 200 6 5.4-4.0
2016-Feb-05 20:20 210 7 5.4-2.0
2016-Feb-05 19:50 200 8 5.4-2.0 Showers in the vicinity.
2016-Feb-05 19:20 200 7 5.4-3.0
2016-Feb-05 18:50 190 4 3.8-2.0 Showers in the vicinity.
2016-Feb-05 18:20 210 5 5.4-1.0 Light snow showers.
2016-Feb-05 17:50 5.4-1.0 Showers in the vicinity.
2016-Feb-05 17:20 230 4 5.4-2.0 Light snow showers.
2016-Feb-05 16:50 200 6 5.4-3.0 Showers in the vicinity.
2016-Feb-05 16:20 200 10 5.4-1.0 Showers in the vicinity.
2016-Feb-05 15:50 230 9 5.4-1.0 Light snow showers.
2016-Feb-05 15:20 220 7 5.4-2.0 Showers in the vicinity.
2016-Feb-05 14:20 200 5 5.4-3.0 Showers in the vicinity.
2016-Feb-05 13:50 210 6 5.4-4.0 Showers in the vicinity.
2016-Feb-05 13:20 190 7 5.4-3.0 Showers in the vicinity.
2016-Feb-05 12:50 190 7 5.4-2.0 Showers in the vicinity.
2016-Feb-05 12:20 200 6 4.3-2.0 Showers in the vicinity.
2016-Feb-05 11:50 170 6 5.4-2.0 Showers in the vicinity.
2016-Feb-05 11:20 170 6 0.4-1.0 Snow.
2016-Feb-05 10:50 150 6 2.7-0.0 Light snow showers.
2016-Feb-05 10:20 140 4 1.3-1.0 Light snow showers.
2016-Feb-05 09:50 1.8-1.0 Light snow showers.
2016-Feb-05 09:20 210 2 1.5-2.0 Light snow showers.
2016-Feb-05 08:50 200 5 5.4-3.0 Showers in the vicinity.
2016-Feb-05 08:20 220 6 5.4-2.0 Showers in the vicinity.
2016-Feb-05 07:50 180 7 5.4-1.0 Light snow showers.
2016-Feb-05 07:20 150 7 0.8-1.0 Light snow showers.
2016-Feb-05 06:50 090 4 5.4-2.0 Light snow showers.
2016-Feb-05 06:20 180 4 5.4-3.0 Showers in the vicinity.
2016-Feb-05 05:50 210 6 5.4-4.0 Showers in the vicinity.
2016-Feb-05 05:20 210 8 5.4-4.0
2016-Feb-05 04:50 210 6 5.4-5.0
2016-Feb-05 04:20 200 6 5.4-5.0
2016-Feb-05 03:50 210 8 5.4-5.0
2016-Feb-05 03:20 210 5 5.4-5.0
2016-Feb-05 02:50 220 4 5.4-5.0
2016-Feb-05 02:20 230 5 5.4-5.0
2016-Feb-05 01:50 230 4 5.4-3.0
2016-Feb-05 01:20 250 2 5.4-5.0
2016-Feb-05 00:50 270 2 5.4-5.0
2016-Feb-05 00:20 270 3 5.4-4.0
2016-Feb-04 23:50 240 4 5.4-4.0
2016-Feb-04 23:20 290 2 0.9-4.0
2016-Feb-04 22:50 260 2 0.5-3.0 Freezing fog.
2016-Feb-04 22:20 0.9-1.0 Mist.
2016-Feb-04 21:50 290 6 0.9-0.0 Light snow.
2016-Feb-04 21:20 1.9-0.0 Light snow showers.
2016-Feb-04 20:50 060 4 5.4-0.0 Light snow showers.
2016-Feb-04 20:20 070 12 5.4 1.0 Showers in the vicinity.
2016-Feb-04 19:50 020 12 5.4 1.0 Light snow showers.
2016-Feb-04 19:20 030 9 5.4-0.0
2016-Feb-04 18:50 030 10 -0.0
2016-Feb-04 18:20 030 10 5.4 1.0
2016-Feb-04 17:50 030 10 5.4 1.0
2016-Feb-04 17:20 020 13 5.4 1.0
2016-Feb-04 16:50 030 14 5.4 1.0
2016-Feb-04 16:20 020 15 5.4 1.0
2016-Feb-04 15:50 020 15 5.4 1.0
2016-Feb-04 15:20 020 14 5.4 1.0
2016-Feb-04 14:50 040 17 5.4-0.0
2016-Feb-04 14:20 030 17 5.4 1.0
2016-Feb-04 13:50 030 16 5.4 1.0
2016-Feb-04 13:20 040 16 5.4 1.0 Showers in the vicinity.
2016-Feb-04 12:50 040 17 5.4 1.0 Showers in the vicinity.
2016-Feb-04 12:20 020 12 5.4 1.0 Showers in the vicinity.
2016-Feb-04 11:50 030 13 5.4 1.0 Showers in the vicinity.
2016-Feb-04 11:20 040 10 5.4-0.0 Showers in the vicinity.
2016-Feb-04 10:50 030 16 5.4-0.0 Showers in the vicinity.
2016-Feb-04 10:20 030 17 5.4-0.0 Showers in the vicinity.
2016-Feb-04 09:50 040 20 5.4 1.0 Showers in the vicinity.
2016-Feb-04 09:20 020 15 5.4 1.0 Showers in the vicinity.
2016-Feb-04 08:50 030 17 5.4 1.0
2016-Feb-04 08:20 030 18 5.4 1.0 Showers in the vicinity.
2016-Feb-04 07:50 030 17 5.4 1.0 Showers in the vicinity.
2016-Feb-04 07:20 030 19 5.4 1.0 Showers in the vicinity.
2016-Feb-04 06:50 030 13 2.7 1.0 Light snow showers.
2016-Feb-04 06:20 320 12 5.4 1.0 Showers in the vicinity.
2016-Feb-04 05:50 320 9 5.4 1.0 Light snow showers.
2016-Feb-04 05:20 300 3 5.4-0.0 Showers in the vicinity.
2016-Feb-04 04:50 330 7 4.3 1.0
2016-Feb-04 04:20 360 4 5.4-0.0
2016-Feb-04 03:50 030 6 5.4-0.0
2016-Feb-04 03:20 040 11 5.4-0.0
2016-Feb-04 02:50 040 11 5.4-0.0
2016-Feb-04 02:20 040 13 5.4 1.0
2016-Feb-04 01:50 050 12 5.4 1.0
2016-Feb-04 01:20 360 4 5.4-0.0
2016-Feb-04 00:50 340 5 5.4-0.0
2016-Feb-04 00:20 280 4 3.8-0.0 Freezing precipitation.
2016-Feb-03 23:50 300 1 0.9-0.0 Light snow.
2016-Feb-03 23:20 360 4 0.5-0.0 Light snow.
2016-Feb-03 22:50 040 6 5.4-0.0
2016-Feb-03 22:20 170 4 4.3-0.0 Precipitation.